Jackson Hawkins Field, MS

12:52 AM CDT on April 27, 2018 (GMT -0500)
Hawkins

Weather History for KHKS - December, 2013

Change the Weather History Date:

Saturday, December 7, 2013

  Actual Average (KJAN) Record (KJAN)
Temperature  
Mean Temperature 32 °F -  
Max Temperature 35 °F 60 °F 84 °F (1978)
Min Temperature 30 °F 37 °F 14 °F (1937)
Degree Days  
Heating Degree Days 32    
Moisture  
Dew Point 30 °F    
Average Humidity 88    
Maximum Humidity 93    
Minimum Humidity 82    
Precipitation  
Precipitation 0.00 in - - ()
Sea Level Pressure  
Sea Level Pressure 30.34 in    
Wind  
Wind Speed 8 mph (North)    
Max Wind Speed 12 mph    
Max Gust Speed 18 mph    
Visibility 6 miles    
Events Rain    
Averages and records for this station are not official NWS values.
T = Trace of Precipitation, MM = Missing Value Source: NWS Daily Summary

Daily Weather History Graph

Daily Weather History Graph

Search for Another Location

Airport or City:

Astronomy

Dec. 07, 2013 Rise Set
Actual Time 6:49 AM CST 4:55 PM CST
Civil Twilight 6:22 AM CST 5:22 PM CST
Nautical Twilight 5:51 AM CST 5:53 PM CST
Astronomical Twilight 5:22 AM CST 6:22 PM CST
Moon 10:46 AM CST (12/7) 10:24 PM CST (12/7)
Length of Visible Light 11h 00m
Length of Day
10h 06m
Waxing Crescent, 29% of the Moon is Illuminated
Dec 7
Waxing Crescent
Dec 9
First Quarter
Dec 17
Full
Dec 25
Last Quarter
Jan 1
New

Hourly Weather History & Observations

Time (CST) Temp. Windchill Dew Point Humidity Pressure Visibility Wind Dir Wind Speed Gust Speed Precip Events Conditions
12:32 AM 32.0 °F 23.0 °F 30.2 °F 93% 30.32 in 2.5 mi North 11.5 mph 18.4 mph N/A   Overcast
12:53 AM 32.0 °F 23.6 °F 30.0 °F 92% 30.33 in 2.5 mi NNW 10.4 mph 16.1 mph N/A   Overcast
1:29 AM 32.0 °F 23.6 °F 30.2 °F 93% 30.33 in 3.0 mi North 10.4 mph - N/A   Overcast
1:53 AM 32.0 °F 24.2 °F 28.9 °F 88% 30.34 in 4.0 mi North 9.2 mph 17.3 mph N/A   Overcast
2:12 AM 32.0 °F 25.6 °F 28.4 °F 87% 30.34 in 6.0 mi North 6.9 mph 17.3 mph N/A   Overcast
2:53 AM 30.9 °F 22.8 °F 28.9 °F 92% 30.35 in 6.0 mi North 9.2 mph - N/A   Overcast
3:53 AM 30.9 °F 24.3 °F 28.0 °F 89% 30.35 in 5.0 mi North 6.9 mph - N/A   Overcast
4:53 AM 30.9 °F 24.3 °F 28.0 °F 89% 30.35 in 6.0 mi North 6.9 mph - N/A   Overcast
5:53 AM 30.9 °F 21.7 °F 28.9 °F 92% 30.38 in 5.0 mi North 11.5 mph 16.1 mph N/A   Overcast
6:53 AM 30.9 °F 22.8 °F 28.9 °F 92% 30.39 in 7.0 mi North 9.2 mph 17.3 mph N/A   Overcast
7:53 AM 30.9 °F 23.5 °F 28.9 °F 92% 30.40 in 5.0 mi North 8.1 mph 16.1 mph N/A   Overcast
8:53 AM 32.0 °F 24.8 °F 28.9 °F 88% 30.41 in 5.0 mi North 8.1 mph - N/A   Overcast
9:53 AM 33.1 °F 27.7 °F 28.9 °F 85% 30.43 in 8.0 mi Variable 5.8 mph - N/A   Overcast
10:53 AM 34.0 °F 27.2 °F 28.9 °F 82% 30.41 in 10.0 mi North 8.1 mph - N/A   Overcast
11:53 AM 34.0 °F 28.0 °F 30.0 °F 85% 30.38 in 10.0 mi North 6.9 mph - N/A   Overcast
12:53 PM 34.0 °F 27.2 °F 30.0 °F 85% 30.36 in 10.0 mi North 8.1 mph - N/A   Overcast
1:53 PM 35.1 °F 30.1 °F 30.0 °F 82% 30.33 in 9.0 mi Variable 5.8 mph - N/A   Overcast
2:53 PM 35.1 °F 29.3 °F 30.0 °F 82% 30.32 in 10.0 mi Variable 6.9 mph - N/A   Overcast
3:53 PM 34.0 °F 28.0 °F 30.0 °F 85% 30.32 in 9.0 mi North 6.9 mph - N/A   Overcast
4:53 PM 35.1 °F 31.0 °F 30.0 °F 82% 30.31 in 10.0 mi NNE 4.6 mph - N/A   Overcast
5:53 PM 34.0 °F 27.2 °F 28.9 °F 82% 30.30 in 10.0 mi NE 8.1 mph 16.1 mph N/A   Overcast
6:53 PM 34.0 °F 29.8 °F 30.0 °F 85% 30.30 in 9.0 mi NNE 4.6 mph - N/A   Overcast
7:53 PM 34.0 °F 28.0 °F 30.0 °F 85% 30.30 in 7.0 mi NE 6.9 mph - N/A   Overcast
8:53 PM 34.0 °F 29.8 °F 30.9 °F 89% 30.29 in 5.0 mi NE 4.6 mph - N/A   Overcast
9:53 PM 35.1 °F 29.3 °F 30.9 °F 85% 30.28 in 5.0 mi East 6.9 mph - N/A   Overcast
10:53 PM 35.1 °F 32.2 °F 32.0 °F 89% 30.28 in 4.0 mi NE 3.5 mph - N/A   Overcast
11:51 PM 35.6 °F - 33.8 °F 93% 30.28 in 1.8 mi Calm Calm - 0.00 in Rain Light Rain
11:52 PM 35.1 °F - 33.1 °F 92% 30.28 in 1.8 mi Calm Calm - 0.00 in Rain Light Rain